AWOS - Automated Weather Observation System

 

0
0
0
0

 

AWOS from is a family of real-time weather observation systems specially designed to detect, report and disseminate weather conditions at airports. It intended use is for various sized of airports, ranging from small domestic landing strips or remotely operated airports to large international airports.

We can offer a turn-key solution including sensors, installation, training comissioning etc, or we can offer you just the customized software package and the rest is done by the customer himself or by a 3rd party. We can also offer the sensors preferred by the customer or we can use the sensors existing at the airport today and implement them in the new AWOS system.

Real Time Data from Combitech in Linköping

METAR CABX 191820Z AUTO VRB02KT 9000 R01/P2000N R19///// BR NCD 15/09 Q1001

Linköping Sweden, Lat: 58.39172, Lon: 15.56505

 

 

 

 

 

New SMAWOS-delivery to Saab Bofors Testcenter

On May 15th the latest delivery of the SMAWOS was performed to Saab Bofors Testcenter. The system will be used..


AWOS Training

Do you need to update your AWOS skills? Read more about AWOS7 Training and register your interest at:


Show all


AWOS Airport weather data:
     http://wx.awos.se

 

2017-08-19 18:34:34